Overview Statistics Trail Chart Weather Telemetry Raw packets
 

This is the latest recevied weather packets stored in our database for station/object N4DWK. If no packets are shown the sender has not sent any weather packets the latest 10 day(s).

<< 24 25 26 27 28 29 30 >>
Time Temp. Humidity Pressure Rain* Wind** Luminosity Snow
1788450004 30.56° C 77% 1017 hPa 0 mm - 70 W/m² -
1788449706 30.56° C 79% 1017.1 hPa 0 mm - 70 W/m² -
1788449404 30.56° C 78% 1017.1 hPa 0 mm - 70 W/m² -
1788449104 30.56° C 79% 1017.1 hPa 0 mm - 88 W/m² -
1788448804 30.56° C 79% 1017.1 hPa 0 mm - 69 W/m² -
1788448504 30° C 79% 1017.2 hPa 0 mm - 70 W/m² -
1788448204 30° C 78% 1017.1 hPa 0 mm - 67 W/m² -
1788447903 30° C 78% 1017.2 hPa 0 mm - 69 W/m² -
1788447605 30° C 78% 1017.1 hPa 0 mm - 60 W/m² -
1788447303 30° C 78% 1017.1 hPa 0 mm - 70 W/m² -
1788447004 30° C 78% 1017.1 hPa 0 mm - 54 W/m² -
1788446704 30° C 78% 1016.9 hPa 0 mm - 65 W/m² -
1788446404 30° C 79% 1016.9 hPa 0 mm - 69 W/m² -
1788446103 29.44° C 78% 1016.8 hPa 0 mm - 74 W/m² -
1788445804 29.44° C 80% 1016.8 hPa 0 mm - 83 W/m² -
1788445505 29.44° C 80% 1016.6 hPa 0 mm - 95 W/m² -
1788445204 29.44° C 80% 1016.8 hPa 0 mm - 74 W/m² -
1788444904 28.89° C 79% 1016.6 hPa 0 mm - 91 W/m² -
1788444604 28.89° C 79% 1016.5 hPa 0 mm - 72 W/m² -
1788444304 28.89° C 80% 1016.5 hPa 0 mm - 128 W/m² -
1788444004 28.89° C 80% 1016.5 hPa 0 mm - 109 W/m² -
1788443705 28.89° C 80% 1016.5 hPa 0 mm - 220 W/m² -
1788443404 28.33° C 81% 1016.5 hPa 0 mm - 169 W/m² -
1788443105 28.33° C 82% 1016.5 hPa 0 mm - 76 W/m² -
1788442804 28.33° C 83% 1016.5 hPa 0 mm - 76 W/m² -

* Rain latest hour (hover to see other rain measurements)
** Current wind speed in m/s (hover to see current wind gust speed)